Year,Month,Day,Hour,Minute,Value (Times are PST for temperature in C)
2009,07,30,00,00,23.10
2009,07,30,00,01,23.10
2009,07,30,00,02,23.10
2009,07,30,00,03,23.00
2009,07,30,00,04,23.00
2009,07,30,00,05,23.00
2009,07,30,00,06,22.90
2009,07,30,00,07,22.90
2009,07,30,00,08,22.90
2009,07,30,00,09,22.90
2009,07,30,00,10,22.90
2009,07,30,00,11,22.90
2009,07,30,00,12,22.90
2009,07,30,00,13,22.90
2009,07,30,00,14,23.00
2009,07,30,00,15,23.00
2009,07,30,00,16,23.00
2009,07,30,00,17,23.00
2009,07,30,00,18,23.00
2009,07,30,00,19,23.00
2009,07,30,00,20,22.90
2009,07,30,00,21,22.90
2009,07,30,00,22,22.90
2009,07,30,00,23,22.90
2009,07,30,00,24,22.80
2009,07,30,00,25,22.80
2009,07,30,00,26,22.70
2009,07,30,00,27,22.70
2009,07,30,00,28,22.70
2009,07,30,00,29,22.70
2009,07,30,00,30,22.60
2009,07,30,00,31,22.60
2009,07,30,00,32,22.60
2009,07,30,00,33,22.60
2009,07,30,00,34,22.60
2009,07,30,00,35,22.60
2009,07,30,00,36,22.60
2009,07,30,00,37,22.60
2009,07,30,00,38,22.60
2009,07,30,00,39,22.50
2009,07,30,00,40,22.50
2009,07,30,00,41,22.50
2009,07,30,00,42,22.40
2009,07,30,00,43,22.40
2009,07,30,00,44,22.40
2009,07,30,00,45,22.40
2009,07,30,00,46,22.40
2009,07,30,00,47,22.40
2009,07,30,00,48,22.40
2009,07,30,00,49,22.40
2009,07,30,00,50,22.40
2009,07,30,00,51,22.30
2009,07,30,00,52,22.30
2009,07,30,00,53,22.30
2009,07,30,00,54,22.30
2009,07,30,00,55,22.30
2009,07,30,00,56,22.30
2009,07,30,00,57,22.20
2009,07,30,00,58,22.20
2009,07,30,00,59,22.20
2009,07,30,01,00,22.20
2009,07,30,01,01,22.20
2009,07,30,01,02,22.20
2009,07,30,01,03,22.20
2009,07,30,01,04,22.20
2009,07,30,01,05,22.30
2009,07,30,01,06,22.30
2009,07,30,01,07,22.30
2009,07,30,01,08,22.30
2009,07,30,01,09,22.30
2009,07,30,01,10,22.30
2009,07,30,01,11,22.40
2009,07,30,01,12,22.30
2009,07,30,01,13,22.30
2009,07,30,01,14,22.30
2009,07,30,01,15,22.30
2009,07,30,01,16,22.30
2009,07,30,01,17,22.30
2009,07,30,01,18,22.30
2009,07,30,01,19,22.30
2009,07,30,01,20,22.30
2009,07,30,01,21,22.30
2009,07,30,01,22,22.30
2009,07,30,01,23,22.20
2009,07,30,01,24,22.20
2009,07,30,01,25,22.10
2009,07,30,01,26,22.10
2009,07,30,01,27,22.00
2009,07,30,01,28,22.00
2009,07,30,01,29,21.90
2009,07,30,01,30,21.90
2009,07,30,01,31,21.80
2009,07,30,01,32,21.80
2009,07,30,01,33,21.80
2009,07,30,01,34,21.80
2009,07,30,01,35,21.80
2009,07,30,01,36,21.80
2009,07,30,01,37,21.80
2009,07,30,01,38,21.80
2009,07,30,01,39,21.80
2009,07,30,01,40,21.80
2009,07,30,01,41,21.80
2009,07,30,01,42,21.70
2009,07,30,01,43,21.70
2009,07,30,01,44,21.70
2009,07,30,01,45,21.70
2009,07,30,01,46,21.70
2009,07,30,01,47,21.70
2009,07,30,01,48,21.60
2009,07,30,01,49,21.60
2009,07,30,01,50,21.60
2009,07,30,01,51,21.60
2009,07,30,01,52,21.60
2009,07,30,01,53,21.60
2009,07,30,01,54,21.60
2009,07,30,01,55,21.50
2009,07,30,01,56,21.50
2009,07,30,01,57,21.40
2009,07,30,01,58,21.40
2009,07,30,01,59,21.40
2009,07,30,02,00,21.30
2009,07,30,02,01,21.30
2009,07,30,02,02,21.30
2009,07,30,02,03,21.30
2009,07,30,02,04,21.30
2009,07,30,02,05,21.30
2009,07,30,02,06,21.20
2009,07,30,02,07,21.20
2009,07,30,02,08,21.20
2009,07,30,02,09,21.20
2009,07,30,02,10,21.20
2009,07,30,02,11,21.30
2009,07,30,02,12,21.30
2009,07,30,02,13,21.30
2009,07,30,02,14,21.40
2009,07,30,02,15,21.50
2009,07,30,02,16,21.50
2009,07,30,02,17,21.50
2009,07,30,02,18,21.60
2009,07,30,02,19,21.60
2009,07,30,02,20,21.60
2009,07,30,02,21,21.60
2009,07,30,02,22,21.60
2009,07,30,02,23,21.60
2009,07,30,02,24,21.60
2009,07,30,02,25,21.60
2009,07,30,02,26,21.60
2009,07,30,02,27,21.60
2009,07,30,02,28,21.60
2009,07,30,02,29,21.70
2009,07,30,02,30,21.70
2009,07,30,02,31,21.70
2009,07,30,02,32,21.70
2009,07,30,02,33,21.60
2009,07,30,02,34,21.60
2009,07,30,02,35,21.60
2009,07,30,02,36,21.50
2009,07,30,02,37,21.50
2009,07,30,02,38,21.40
2009,07,30,02,39,21.40
2009,07,30,02,40,21.40
2009,07,30,02,41,21.40
2009,07,30,02,42,21.40
2009,07,30,02,43,21.40
2009,07,30,02,44,21.40
2009,07,30,02,45,21.40
2009,07,30,02,46,21.40
2009,07,30,02,47,21.50
2009,07,30,02,48,21.50
2009,07,30,02,49,21.50
2009,07,30,02,50,21.50
2009,07,30,02,51,21.50
2009,07,30,02,52,21.50
2009,07,30,02,53,21.50
2009,07,30,02,54,21.50
2009,07,30,02,55,21.50
2009,07,30,02,56,21.50
2009,07,30,02,57,21.50
2009,07,30,02,58,21.40
2009,07,30,02,59,21.40
2009,07,30,03,00,21.40
2009,07,30,03,01,21.40
2009,07,30,03,02,21.30
2009,07,30,03,03,21.30
2009,07,30,03,04,21.30
2009,07,30,03,05,21.30
2009,07,30,03,06,21.20
2009,07,30,03,07,21.20
2009,07,30,03,08,21.10
2009,07,30,03,09,21.10
2009,07,30,03,10,21.00
2009,07,30,03,11,20.90
2009,07,30,03,12,20.90
2009,07,30,03,13,20.90
2009,07,30,03,14,20.90
2009,07,30,03,15,20.90
2009,07,30,03,16,20.90
2009,07,30,03,17,20.90
2009,07,30,03,18,20.90
2009,07,30,03,19,20.90
2009,07,30,03,20,20.90
2009,07,30,03,21,20.90
2009,07,30,03,22,20.90
2009,07,30,03,23,20.80
2009,07,30,03,24,20.80
2009,07,30,03,25,20.80
2009,07,30,03,26,20.80
2009,07,30,03,27,20.80
2009,07,30,03,28,20.80
2009,07,30,03,29,20.80
2009,07,30,03,30,20.80
2009,07,30,03,31,20.70
2009,07,30,03,32,20.70
2009,07,30,03,33,20.70
2009,07,30,03,34,20.70
2009,07,30,03,35,20.70
2009,07,30,03,36,20.70
2009,07,30,03,37,20.70
2009,07,30,03,38,20.70
2009,07,30,03,39,20.60
2009,07,30,03,40,20.60
2009,07,30,03,41,20.60
2009,07,30,03,42,20.60
2009,07,30,03,43,20.60
2009,07,30,03,44,20.60
2009,07,30,03,45,20.60
2009,07,30,03,46,20.60
2009,07,30,03,47,20.60
2009,07,30,03,48,20.60
2009,07,30,03,49,20.60
2009,07,30,03,50,20.60
2009,07,30,03,51,20.60
2009,07,30,03,52,20.50
2009,07,30,03,53,20.50
2009,07,30,03,54,20.50
2009,07,30,03,55,20.40
2009,07,30,03,56,20.40
2009,07,30,03,57,20.40
2009,07,30,03,58,20.40
2009,07,30,03,59,20.40
2009,07,30,04,00,20.40
2009,07,30,04,01,20.30
2009,07,30,04,02,20.30
2009,07,30,04,03,20.30
2009,07,30,04,04,20.30
2009,07,30,04,05,20.30
2009,07,30,04,06,20.30
2009,07,30,04,07,20.30
2009,07,30,04,08,20.30
2009,07,30,04,09,20.30
2009,07,30,04,10,20.30
2009,07,30,04,11,20.30
2009,07,30,04,12,20.20
2009,07,30,04,13,20.20
2009,07,30,04,14,20.20
2009,07,30,04,15,20.20
2009,07,30,04,16,20.20
2009,07,30,04,17,20.20
2009,07,30,04,18,20.20
2009,07,30,04,19,20.10
2009,07,30,04,20,20.10
2009,07,30,04,21,20.10
2009,07,30,04,22,20.10
2009,07,30,04,23,20.10
2009,07,30,04,24,20.10
2009,07,30,04,25,20.10
2009,07,30,04,26,20.10
2009,07,30,04,27,20.10
2009,07,30,04,28,20.10
2009,07,30,04,29,20.10
2009,07,30,04,30,20.10
2009,07,30,04,31,20.10
2009,07,30,04,32,20.10
2009,07,30,04,33,20.10
2009,07,30,04,34,20.10
2009,07,30,04,35,20.10
2009,07,30,04,36,20.10
2009,07,30,04,37,20.10
2009,07,30,04,38,20.10
2009,07,30,04,39,20.10
2009,07,30,04,40,20.10
2009,07,30,04,41,20.10
2009,07,30,04,42,20.20
2009,07,30,04,43,20.20
2009,07,30,04,44,20.30
2009,07,30,04,45,20.40
2009,07,30,04,46,20.40
2009,07,30,04,47,20.40
2009,07,30,04,48,20.40
2009,07,30,04,49,20.40
2009,07,30,04,50,20.40
2009,07,30,04,51,20.40
2009,07,30,04,52,20.40
2009,07,30,04,53,20.40
2009,07,30,04,54,20.40
2009,07,30,04,55,20.40
2009,07,30,04,56,20.40
2009,07,30,04,57,20.40
2009,07,30,04,58,20.40
2009,07,30,04,59,20.40
2009,07,30,05,00,20.40
2009,07,30,05,01,20.50
2009,07,30,05,02,20.50
2009,07,30,05,03,20.50
2009,07,30,05,04,20.50
2009,07,30,05,05,20.50
2009,07,30,05,06,20.40
2009,07,30,05,07,20.40
2009,07,30,05,08,20.40
2009,07,30,05,09,20.40
2009,07,30,05,10,20.40
2009,07,30,05,11,20.30
2009,07,30,05,12,20.30
2009,07,30,05,13,20.30
2009,07,30,05,14,20.30
2009,07,30,05,15,20.30
2009,07,30,05,16,20.20
2009,07,30,05,17,20.20
2009,07,30,05,18,20.20
2009,07,30,05,19,20.20
2009,07,30,05,20,20.20
2009,07,30,05,21,20.10
2009,07,30,05,22,20.10
2009,07,30,05,23,20.10
2009,07,30,05,24,20.10
2009,07,30,05,25,20.10
2009,07,30,05,26,20.10
2009,07,30,05,27,20.20
2009,07,30,05,28,20.20
2009,07,30,05,29,20.20
2009,07,30,05,30,20.20
2009,07,30,05,31,20.20
2009,07,30,05,32,20.20
2009,07,30,05,33,20.20
2009,07,30,05,34,20.20
2009,07,30,05,35,20.20
2009,07,30,05,36,20.20
2009,07,30,05,37,20.20
2009,07,30,05,38,20.20
2009,07,30,05,39,20.20
2009,07,30,05,40,20.10
2009,07,30,05,41,20.10
2009,07,30,05,42,20.10
2009,07,30,05,43,20.00
2009,07,30,05,44,20.00
2009,07,30,05,45,20.00
2009,07,30,05,46,19.90
2009,07,30,05,47,19.90
2009,07,30,05,48,19.90
2009,07,30,05,49,19.90
2009,07,30,05,50,19.80
2009,07,30,05,51,19.80
2009,07,30,05,52,19.80
2009,07,30,05,53,19.80
2009,07,30,05,54,19.80
2009,07,30,05,55,19.80
2009,07,30,05,56,19.80
2009,07,30,05,57,19.80
2009,07,30,05,58,19.80
2009,07,30,05,59,19.80
2009,07,30,06,00,19.80
2009,07,30,06,01,19.80
2009,07,30,06,02,19.80
2009,07,30,06,03,19.80
2009,07,30,06,04,19.80
2009,07,30,06,05,19.70
2009,07,30,06,06,19.70
2009,07,30,06,07,19.70
2009,07,30,06,08,19.70
2009,07,30,06,09,19.70
2009,07,30,06,10,19.70
2009,07,30,06,11,19.70
2009,07,30,06,12,19.80
2009,07,30,06,13,19.80
2009,07,30,06,14,19.80
2009,07,30,06,15,19.80
2009,07,30,06,16,19.80
2009,07,30,06,17,19.80
2009,07,30,06,18,19.80
2009,07,30,06,19,19.70
2009,07,30,06,20,19.70
2009,07,30,06,21,19.70
2009,07,30,06,22,19.70
2009,07,30,06,23,19.70
2009,07,30,06,24,19.70
2009,07,30,06,25,19.70
2009,07,30,06,26,19.70
2009,07,30,06,27,19.70
2009,07,30,06,28,19.70
2009,07,30,06,29,19.70
2009,07,30,06,30,19.70
2009,07,30,06,31,19.70
2009,07,30,06,32,19.70
2009,07,30,06,33,19.80
2009,07,30,06,34,19.80
2009,07,30,06,35,19.80
2009,07,30,06,36,19.80
2009,07,30,06,37,19.80
2009,07,30,06,38,19.80
2009,07,30,06,39,19.80
2009,07,30,06,40,19.80
2009,07,30,06,41,19.80
2009,07,30,06,42,19.80
2009,07,30,06,43,19.80
2009,07,30,06,44,19.90
2009,07,30,06,45,19.90
2009,07,30,06,46,19.90
2009,07,30,06,47,20.00
2009,07,30,06,48,20.00
2009,07,30,06,49,20.00
2009,07,30,06,50,20.10
2009,07,30,06,51,20.10
2009,07,30,06,52,20.10
2009,07,30,06,53,20.20
2009,07,30,06,54,20.20
2009,07,30,06,55,20.20
2009,07,30,06,56,20.20
2009,07,30,06,57,20.20
2009,07,30,06,58,20.30
2009,07,30,06,59,20.30
2009,07,30,07,00,20.30
2009,07,30,07,01,20.30
2009,07,30,07,02,20.30
2009,07,30,07,03,20.30
2009,07,30,07,04,20.40
2009,07,30,07,05,20.40
2009,07,30,07,06,20.40
2009,07,30,07,07,20.40
2009,07,30,07,08,20.40
2009,07,30,07,09,20.40
2009,07,30,07,10,20.50
2009,07,30,07,11,20.50
2009,07,30,07,12,20.50
2009,07,30,07,13,20.50
2009,07,30,07,14,20.60
2009,07,30,07,15,20.60
2009,07,30,07,16,20.60
2009,07,30,07,17,20.70
2009,07,30,07,18,20.70
2009,07,30,07,19,20.70
2009,07,30,07,20,20.70
2009,07,30,07,21,20.80
2009,07,30,07,22,20.80
2009,07,30,07,23,20.80
2009,07,30,07,24,20.90
2009,07,30,07,25,20.90
2009,07,30,07,26,21.00
2009,07,30,07,27,21.00
2009,07,30,07,28,21.10
2009,07,30,07,29,21.10
2009,07,30,07,30,21.20
2009,07,30,07,31,21.20
2009,07,30,07,32,21.20
2009,07,30,07,33,21.30
2009,07,30,07,34,21.30
2009,07,30,07,35,21.40
2009,07,30,07,36,21.50
2009,07,30,07,37,21.60
2009,07,30,07,38,21.70
2009,07,30,07,39,21.70
2009,07,30,07,40,21.80
2009,07,30,07,41,21.90
2009,07,30,07,42,22.00
2009,07,30,07,43,22.10
2009,07,30,07,44,22.20
2009,07,30,07,45,22.30
2009,07,30,07,46,22.50
2009,07,30,07,47,22.60
2009,07,30,07,48,22.70
2009,07,30,07,49,22.90
2009,07,30,07,50,23.00
2009,07,30,07,51,23.20
2009,07,30,07,52,23.30
2009,07,30,07,53,23.50
2009,07,30,07,54,23.60
2009,07,30,07,55,23.80
2009,07,30,07,56,23.90
2009,07,30,07,57,24.00
2009,07,30,07,58,24.10
2009,07,30,07,59,24.20
2009,07,30,08,00,24.30
2009,07,30,08,01,24.30
2009,07,30,08,02,24.40
2009,07,30,08,03,24.40
2009,07,30,08,04,24.40
2009,07,30,08,05,24.40
2009,07,30,08,06,24.40
2009,07,30,08,07,24.40
2009,07,30,08,08,24.40
2009,07,30,08,09,24.30
2009,07,30,08,10,24.20
2009,07,30,08,11,24.20
2009,07,30,08,12,24.20
2009,07,30,08,13,24.20
2009,07,30,08,14,24.20
2009,07,30,08,15,24.20
2009,07,30,08,16,24.20
2009,07,30,08,17,24.20
2009,07,30,08,18,24.20
2009,07,30,08,19,24.20
2009,07,30,08,20,24.20
2009,07,30,08,21,24.20
2009,07,30,08,22,24.20
2009,07,30,08,23,24.30
2009,07,30,08,24,24.30
2009,07,30,08,25,24.30
2009,07,30,08,26,24.30
2009,07,30,08,27,24.30
2009,07,30,08,28,24.40
2009,07,30,08,29,24.40
2009,07,30,08,30,24.40
2009,07,30,08,31,24.40
2009,07,30,08,32,24.50
2009,07,30,08,33,24.50
2009,07,30,08,34,24.50
2009,07,30,08,35,24.60
2009,07,30,08,36,24.60
2009,07,30,08,37,24.70
2009,07,30,08,38,24.80
2009,07,30,08,39,24.80
2009,07,30,08,40,24.90
2009,07,30,08,41,25.00
2009,07,30,08,42,25.10
2009,07,30,08,43,25.20
2009,07,30,08,44,25.20
2009,07,30,08,45,25.20
2009,07,30,08,46,25.30
2009,07,30,08,47,25.30
2009,07,30,08,48,25.30
2009,07,30,08,49,25.30
2009,07,30,08,50,25.40
2009,07,30,08,51,25.40
2009,07,30,08,52,25.40
2009,07,30,08,53,25.50
2009,07,30,08,54,25.50
2009,07,30,08,55,25.60
2009,07,30,08,56,25.60
2009,07,30,08,57,25.70
2009,07,30,08,58,25.80
2009,07,30,08,59,25.80
2009,07,30,09,00,25.90
2009,07,30,09,01,25.90
2009,07,30,09,02,25.90
2009,07,30,09,03,26.00
2009,07,30,09,04,26.10
2009,07,30,09,05,26.20
2009,07,30,09,06,26.30
2009,07,30,09,07,26.30
2009,07,30,09,08,26.30
2009,07,30,09,09,26.40
2009,07,30,09,10,26.40
2009,07,30,09,11,26.40
2009,07,30,09,12,26.40
2009,07,30,09,13,26.40
2009,07,30,09,14,26.40
2009,07,30,09,15,26.30
2009,07,30,09,16,26.30
2009,07,30,09,17,26.30
2009,07,30,09,18,26.30
2009,07,30,09,19,26.30
2009,07,30,09,20,26.30
2009,07,30,09,21,26.30
2009,07,30,09,22,26.40
2009,07,30,09,23,26.50
2009,07,30,09,24,26.50
2009,07,30,09,25,26.50
2009,07,30,09,26,26.50
2009,07,30,09,27,26.60
2009,07,30,09,28,26.60
2009,07,30,09,29,26.60
2009,07,30,09,30,26.60
2009,07,30,09,31,26.70
2009,07,30,09,32,26.70
2009,07,30,09,33,26.60
2009,07,30,09,34,26.60
2009,07,30,09,35,26.50
2009,07,30,09,36,26.60
2009,07,30,09,37,26.60
2009,07,30,09,38,26.60
2009,07,30,09,39,26.60
2009,07,30,09,40,26.70
2009,07,30,09,41,26.80
2009,07,30,09,42,26.90
2009,07,30,09,43,26.90
2009,07,30,09,44,27.00
2009,07,30,09,45,27.00
2009,07,30,09,46,27.10
2009,07,30,09,47,27.10
2009,07,30,09,48,27.10
2009,07,30,09,49,27.20
2009,07,30,09,50,27.20
2009,07,30,09,51,27.20
2009,07,30,09,52,27.20
2009,07,30,09,53,27.30
2009,07,30,09,54,27.50
2009,07,30,09,55,27.70
2009,07,30,09,56,28.00
2009,07,30,09,57,28.20
2009,07,30,09,58,28.40
2009,07,30,09,59,28.50
2009,07,30,10,00,28.60
2009,07,30,10,01,28.70
2009,07,30,10,02,28.70
2009,07,30,10,03,28.70
2009,07,30,10,04,28.70
2009,07,30,10,05,28.70
2009,07,30,10,06,28.80
2009,07,30,10,07,28.90
2009,07,30,10,08,28.90
2009,07,30,10,09,28.90
2009,07,30,10,10,28.90
2009,07,30,10,11,29.00
2009,07,30,10,12,29.10
2009,07,30,10,13,29.10
2009,07,30,10,14,29.10
2009,07,30,10,15,29.20
2009,07,30,10,16,29.20
2009,07,30,10,17,29.20
2009,07,30,10,18,29.30
2009,07,30,10,19,29.30
2009,07,30,10,20,29.30
2009,07,30,10,21,29.30
2009,07,30,10,22,29.40
2009,07,30,10,23,29.40
2009,07,30,10,24,29.40
2009,07,30,10,25,29.40
2009,07,30,10,26,29.50
2009,07,30,10,27,29.50
2009,07,30,10,28,29.60
2009,07,30,10,29,29.60
2009,07,30,10,30,29.60
2009,07,30,10,31,29.60
2009,07,30,10,32,29.70
2009,07,30,10,33,29.70
2009,07,30,10,34,29.80
2009,07,30,10,35,29.80
2009,07,30,10,36,29.90
2009,07,30,10,37,30.00
2009,07,30,10,38,30.10
2009,07,30,10,39,30.20
2009,07,30,10,40,30.20
2009,07,30,10,41,30.00
2009,07,30,10,42,29.90
2009,07,30,10,43,29.90
2009,07,30,10,44,29.80
2009,07,30,10,45,29.90
2009,07,30,10,46,29.90
2009,07,30,10,47,30.00
2009,07,30,10,48,30.00
2009,07,30,10,49,30.10
2009,07,30,10,50,30.00
2009,07,30,10,51,29.90
2009,07,30,10,52,29.80
2009,07,30,10,53,29.80
2009,07,30,10,54,29.80
2009,07,30,10,55,29.70
2009,07,30,10,56,29.70
2009,07,30,10,57,29.70
2009,07,30,10,58,29.70
2009,07,30,10,59,29.80
2009,07,30,11,00,29.90
2009,07,30,11,01,29.90
2009,07,30,11,02,29.90
2009,07,30,11,03,29.90
2009,07,30,11,04,29.90
2009,07,30,11,05,29.80
2009,07,30,11,06,29.80
2009,07,30,11,07,29.80
2009,07,30,11,08,29.80
2009,07,30,11,09,29.70
2009,07,30,11,10,29.60
2009,07,30,11,11,29.70
2009,07,30,11,12,29.70
2009,07,30,11,13,29.90
2009,07,30,11,14,30.00
2009,07,30,11,15,30.00
2009,07,30,11,16,30.00
2009,07,30,11,17,30.00
2009,07,30,11,18,29.90
2009,07,30,11,19,30.00
2009,07,30,11,20,30.00
2009,07,30,11,21,29.90
2009,07,30,11,22,29.90
2009,07,30,11,23,29.90
2009,07,30,11,24,29.90
2009,07,30,11,25,29.90
2009,07,30,11,26,29.90
2009,07,30,11,27,30.00
2009,07,30,11,28,30.10
2009,07,30,11,29,30.10
2009,07,30,11,30,30.20
2009,07,30,11,31,30.10
2009,07,30,11,32,30.10
2009,07,30,11,33,30.10
2009,07,30,11,34,30.10
2009,07,30,11,35,30.10
2009,07,30,11,36,30.00
2009,07,30,11,37,30.00
2009,07,30,11,38,30.00
2009,07,30,11,39,29.90
2009,07,30,11,40,29.90
2009,07,30,11,41,29.80
2009,07,30,11,42,29.90
2009,07,30,11,43,29.90
2009,07,30,11,44,29.90
2009,07,30,11,45,30.00
2009,07,30,11,46,30.00
2009,07,30,11,47,30.10
2009,07,30,11,48,30.10
2009,07,30,11,49,30.10
2009,07,30,11,50,30.20
2009,07,30,11,51,30.30
2009,07,30,11,52,30.40
2009,07,30,11,53,30.40
2009,07,30,11,54,30.40
2009,07,30,11,55,30.50
2009,07,30,11,56,30.60
2009,07,30,11,57,30.60
2009,07,30,11,58,30.80
2009,07,30,11,59,30.80
2009,07,30,12,00,30.80
2009,07,30,12,01,30.70
2009,07,30,12,02,30.70
2009,07,30,12,03,30.70
2009,07,30,12,04,30.60
2009,07,30,12,05,30.70
2009,07,30,12,06,30.70
2009,07,30,12,07,30.80
2009,07,30,12,08,30.90
2009,07,30,12,09,31.00
2009,07,30,12,10,31.10
2009,07,30,12,11,31.20
2009,07,30,12,12,31.30
2009,07,30,12,13,31.30
2009,07,30,12,14,31.30
2009,07,30,12,15,31.30
2009,07,30,12,16,31.40
2009,07,30,12,17,31.40
2009,07,30,12,18,31.40
2009,07,30,12,19,31.50
2009,07,30,12,20,31.70
2009,07,30,12,21,31.80
2009,07,30,12,22,31.80
2009,07,30,12,23,31.80
2009,07,30,12,24,31.80
2009,07,30,12,25,31.80
2009,07,30,12,26,31.80
2009,07,30,12,27,31.90
2009,07,30,12,28,31.90
2009,07,30,12,29,31.90
2009,07,30,12,30,31.90
2009,07,30,12,31,32.00
2009,07,30,12,32,32.10
2009,07,30,12,33,32.20
2009,07,30,12,34,32.40
2009,07,30,12,35,32.40
2009,07,30,12,36,32.40
2009,07,30,12,37,32.40
2009,07,30,12,38,32.40
2009,07,30,12,39,32.50
2009,07,30,12,40,32.60
2009,07,30,12,41,32.70
2009,07,30,12,42,32.80
2009,07,30,12,43,33.00
2009,07,30,12,44,33.10
2009,07,30,12,45,33.10
2009,07,30,12,46,32.90
2009,07,30,12,47,32.70
2009,07,30,12,48,32.70
2009,07,30,12,49,32.60
2009,07,30,12,50,32.50
2009,07,30,12,51,32.50
2009,07,30,12,52,32.50
2009,07,30,12,53,32.40
2009,07,30,12,54,32.40
2009,07,30,12,55,32.50
2009,07,30,12,56,32.60
2009,07,30,12,57,32.60
2009,07,30,12,58,32.50
2009,07,30,12,59,32.40
2009,07,30,13,00,32.40
2009,07,30,13,01,32.40
2009,07,30,13,02,32.40
2009,07,30,13,03,32.30
2009,07,30,13,04,32.30
2009,07,30,13,05,32.30
2009,07,30,13,06,32.10
2009,07,30,13,07,32.10
2009,07,30,13,08,32.00
2009,07,30,13,09,32.00
2009,07,30,13,10,32.00
2009,07,30,13,11,32.00
2009,07,30,13,12,32.00
2009,07,30,13,13,31.90
2009,07,30,13,14,31.90
2009,07,30,13,15,32.00
2009,07,30,13,16,32.10
2009,07,30,13,17,32.10
2009,07,30,13,18,31.90
2009,07,30,13,19,31.90
2009,07,30,13,20,31.80
2009,07,30,13,21,31.80
2009,07,30,13,22,31.80
2009,07,30,13,23,31.80
2009,07,30,13,24,31.70
2009,07,30,13,25,31.60
2009,07,30,13,26,31.50
2009,07,30,13,27,31.40
2009,07,30,13,28,31.30
2009,07,30,13,29,31.20
2009,07,30,13,30,31.10
2009,07,30,13,31,31.10
2009,07,30,13,32,31.30
2009,07,30,13,33,31.30
2009,07,30,13,34,31.30
2009,07,30,13,35,31.30
2009,07,30,13,36,31.40
2009,07,30,13,37,31.40
2009,07,30,13,38,31.50
2009,07,30,13,39,31.50
2009,07,30,13,40,31.60
2009,07,30,13,41,31.70
2009,07,30,13,42,31.80
2009,07,30,13,43,31.90
2009,07,30,13,44,31.90
2009,07,30,13,45,31.70
2009,07,30,13,46,31.60
2009,07,30,13,47,31.40
2009,07,30,13,48,31.40
2009,07,30,13,49,31.30
2009,07,30,13,50,31.30
2009,07,30,13,51,31.40
2009,07,30,13,52,31.40
2009,07,30,13,53,31.40
2009,07,30,13,54,31.40
2009,07,30,13,55,31.40
2009,07,30,13,56,31.50
2009,07,30,13,57,31.60
2009,07,30,13,58,31.70
2009,07,30,13,59,31.80
2009,07,30,14,00,31.90
2009,07,30,14,01,31.90
2009,07,30,14,02,31.80
2009,07,30,14,03,31.70
2009,07,30,14,04,31.60
2009,07,30,14,05,31.40
2009,07,30,14,06,31.30
2009,07,30,14,07,31.30
2009,07,30,14,08,31.30
2009,07,30,14,09,31.40
2009,07,30,14,10,31.40
2009,07,30,14,11,31.40
2009,07,30,14,12,31.40
2009,07,30,14,13,31.40
2009,07,30,14,14,31.40
2009,07,30,14,15,31.30
2009,07,30,14,16,31.20
2009,07,30,14,17,31.10
2009,07,30,14,18,31.20
2009,07,30,14,19,31.30
2009,07,30,14,20,31.30
2009,07,30,14,21,31.30
2009,07,30,14,22,31.20
2009,07,30,14,23,31.20
2009,07,30,14,24,31.30
2009,07,30,14,25,31.20
2009,07,30,14,26,31.20
2009,07,30,14,27,31.20
2009,07,30,14,28,31.20
2009,07,30,14,29,31.20
2009,07,30,14,30,31.20
2009,07,30,14,31,31.30
2009,07,30,14,32,31.40
2009,07,30,14,33,31.40
2009,07,30,14,34,31.50
2009,07,30,14,35,31.60
2009,07,30,14,36,31.60
2009,07,30,14,37,31.60
2009,07,30,14,38,31.50
2009,07,30,14,39,31.50
2009,07,30,14,40,31.50
2009,07,30,14,41,31.60
2009,07,30,14,42,31.60
2009,07,30,14,43,31.60
2009,07,30,14,44,31.60
2009,07,30,14,45,31.60
2009,07,30,14,46,31.70
2009,07,30,14,47,31.80
2009,07,30,14,48,31.80
2009,07,30,14,49,31.80
2009,07,30,14,50,31.80
2009,07,30,14,51,31.90
2009,07,30,14,52,32.10
2009,07,30,14,53,32.10
2009,07,30,14,54,32.30
2009,07,30,14,55,32.30
2009,07,30,14,56,32.30
2009,07,30,14,57,32.20
2009,07,30,14,58,32.20
2009,07,30,14,59,32.20
2009,07,30,15,00,32.30
2009,07,30,15,01,32.30
2009,07,30,15,02,32.30
2009,07,30,15,03,32.40
2009,07,30,15,04,32.40
2009,07,30,15,05,32.30
2009,07,30,15,06,32.30
2009,07,30,15,07,32.30
2009,07,30,15,08,32.30
2009,07,30,15,09,32.30
2009,07,30,15,10,32.30
2009,07,30,15,11,32.40
2009,07,30,15,12,32.50
2009,07,30,15,13,32.50
2009,07,30,15,14,32.40
2009,07,30,15,15,32.40
2009,07,30,15,16,32.40
2009,07,30,15,17,32.40
2009,07,30,15,18,32.40
2009,07,30,15,19,32.50
2009,07,30,15,20,32.50
2009,07,30,15,21,32.60
2009,07,30,15,22,32.60
2009,07,30,15,23,32.70
2009,07,30,15,24,32.70
2009,07,30,15,25,32.80
2009,07,30,15,26,32.80
2009,07,30,15,27,32.80
2009,07,30,15,28,32.80
2009,07,30,15,29,32.80
2009,07,30,15,30,32.80
2009,07,30,15,31,32.80
2009,07,30,15,32,32.90
2009,07,30,15,33,32.90
2009,07,30,15,34,32.90
2009,07,30,15,35,32.80
2009,07,30,15,36,32.90
2009,07,30,15,37,32.90
2009,07,30,15,38,33.00
2009,07,30,15,39,33.00
2009,07,30,15,40,33.00
2009,07,30,15,41,33.00
2009,07,30,15,42,33.10
2009,07,30,15,43,33.10
2009,07,30,15,44,33.10
2009,07,30,15,45,33.10
2009,07,30,15,46,33.10
2009,07,30,15,47,33.20
2009,07,30,15,48,33.30
2009,07,30,15,49,33.40
2009,07,30,15,50,33.40
2009,07,30,15,51,33.30
2009,07,30,15,52,33.30
2009,07,30,15,53,33.20
2009,07,30,15,54,33.20
2009,07,30,15,55,33.20
2009,07,30,15,56,33.30
2009,07,30,15,57,33.30
2009,07,30,15,58,33.30
2009,07,30,15,59,33.30
2009,07,30,16,00,33.40
2009,07,30,16,01,33.50
2009,07,30,16,02,33.60
2009,07,30,16,03,33.80
2009,07,30,16,04,34.00
2009,07,30,16,05,34.10
2009,07,30,16,06,34.20
2009,07,30,16,07,34.20
2009,07,30,16,08,34.20
2009,07,30,16,09,34.20
2009,07,30,16,10,34.20
2009,07,30,16,11,34.10
2009,07,30,16,12,34.10
2009,07,30,16,13,34.10
2009,07,30,16,14,34.10
2009,07,30,16,15,34.10
2009,07,30,16,16,34.10
2009,07,30,16,17,34.00
2009,07,30,16,18,34.10
2009,07,30,16,19,34.00
2009,07,30,16,20,33.90
2009,07,30,16,21,33.90
2009,07,30,16,22,33.90
2009,07,30,16,23,34.00
2009,07,30,16,24,34.00
2009,07,30,16,25,34.00
2009,07,30,16,26,34.00
2009,07,30,16,27,33.90
2009,07,30,16,28,33.90
2009,07,30,16,29,34.00
2009,07,30,16,30,34.10
2009,07,30,16,31,34.10
2009,07,30,16,32,34.10
2009,07,30,16,33,34.20
2009,07,30,16,34,34.30
2009,07,30,16,35,34.40
2009,07,30,16,36,34.40
2009,07,30,16,37,34.50
2009,07,30,16,38,34.50
2009,07,30,16,39,34.50
2009,07,30,16,40,34.50
2009,07,30,16,41,34.50
2009,07,30,16,42,34.50
2009,07,30,16,43,34.50
2009,07,30,16,44,34.60
2009,07,30,16,45,34.70
2009,07,30,16,46,34.80
2009,07,30,16,47,34.80
2009,07,30,16,48,34.80
2009,07,30,16,49,34.70
2009,07,30,16,50,34.60
2009,07,30,16,51,34.50
2009,07,30,16,52,34.40
2009,07,30,16,53,34.40
2009,07,30,16,54,34.40
2009,07,30,16,55,34.50
2009,07,30,16,56,34.50
2009,07,30,16,57,34.60
2009,07,30,16,58,34.60
2009,07,30,16,59,34.70
2009,07,30,17,00,34.70
2009,07,30,17,01,34.70
2009,07,30,17,02,34.70
2009,07,30,17,03,34.70
2009,07,30,17,04,34.70
2009,07,30,17,05,34.60
2009,07,30,17,06,34.60
2009,07,30,17,07,34.60
2009,07,30,17,08,34.60
2009,07,30,17,09,34.70
2009,07,30,17,10,34.60
2009,07,30,17,11,34.50
2009,07,30,17,12,34.40
2009,07,30,17,13,34.40
2009,07,30,17,14,34.30
2009,07,30,17,15,34.20
2009,07,30,17,16,34.30
2009,07,30,17,17,34.30
2009,07,30,17,18,34.40
2009,07,30,17,19,34.40